"Timestamp","TZ","WindDir_Mean (deg)","WindSpd_Mean (km/h)","WindSpd_Min (km/h)","WindSpd_Max (km/h)","Temp_Mean (deg)","RH_Mean (%)","MSLP_Mean (hPa)","Rain_Acc (mm)","Rain_Intensity (mm/h)","Hail_Acc (hits/cm2)","Hail_Intensity (hits/cm2hr)","Solar_Mean (W/m2)"
2018/06/30 00:00:00.005,n,337,5.76,5.4,6.12,17.9,81.6,1023.82,0,0,0,0,0.033073
2018/06/30 00:01:00.000,n,342,5.76,5.76,6.84,17.8,81.7,1023.82,0,0,0,0,0.027847
2018/06/30 00:02:00.000,n,334,2.16,1.44,2.88,17.8,81.7,1023.82,0,0,0,0,0.033951
2018/06/30 00:03:00.000,n,311,3.6,3.24,4.32,17.8,81.6,1023.82,0,0,0,0,0.033951
2018/06/30 00:04:00.000,n,347,3.96,3.24,4.68,17.8,81.7,1023.82,0,0,0,0,0.03479
2018/06/30 00:05:00.006,n,321,2.88,2.52,3.6,17.8,81.7,1023.92,0,0,0,0,0.032196
2018/06/30 00:06:00.004,n,281,3.24,2.52,3.96,17.8,81.6,1023.92,0,0,0,0,0.031357
2018/06/30 00:07:00.000,n,310,3.6,2.88,3.96,17.8,81.6,1023.92,0,0,0,0,0.033951
2018/06/30 00:08:00.013,n,303,4.32,3.96,4.68,17.8,81.7,1023.92,0,0,0,0,0.030479
2018/06/30 00:09:00.012,n,271,0.72,0,1.44,17.8,81.6,1023.92,0,0,0,0,0.031357
2018/06/30 00:10:00.000,n,288,1.8,1.44,1.8,17.7,81.5,1023.92,0,0,0,0,0.027847
2018/06/30 00:11:00.000,n,244,1.44,1.08,1.44,17.7,81.5,1023.92,0,0,0,0,0.029564
2018/06/30 00:12:00.003,n,242,1.08,1.08,1.44,17.7,81.4,1023.92,0,0,0,0,0.029564
2018/06/30 00:13:00.001,n,255,3.96,3.24,4.32,17.6,81.5,1023.92,0,0,0,0,0.032196
2018/06/30 00:14:00.000,n,262,3.24,3.24,3.6,17.6,81.6,1023.92,0,0,0,0,0.028725
2018/06/30 00:15:00.000,n,258,3.24,2.88,3.6,17.5,81.7,1023.92,0,0,0,0,0.028725
2018/06/30 00:16:00.008,n,278,3.24,2.52,3.96,17.5,81.7,1023.92,0,0,0,0,0.027847
2018/06/30 00:17:00.006,n,291,2.52,2.16,2.88,17.5,81.8,1023.92,0,0,0,0,0.026131
2018/06/30 00:18:00.003,n,242,2.52,2.16,2.52,17.5,82,1023.92,0,0,0,0,0.02697
2018/06/30 00:19:00.000,n,309,2.52,2.16,2.52,17.4,82.1,1023.82,0,0,0,0,0.026131
2018/06/30 00:20:00.000,n,302,3.6,3.6,3.96,17.4,82.2,1023.82,0,0,0,0,0.02697
2018/06/30 00:21:00.004,n,324,1.8,1.44,2.52,17.4,82.4,1023.82,0,0,0,0,0.032196
2018/06/30 00:22:00.001,n,17,1.8,1.44,1.8,17.4,82.4,1023.82,0,0,0,0,0.032196
2018/06/30 00:23:00.000,n,9,3.6,3.24,3.96,17.4,82.6,1023.82,0,0,0,0,0.028725
2018/06/30 00:24:00.010,n,315,2.88,2.16,2.88,17.4,82.7,1023.92,0,0,0,0,0.024376
2018/06/30 00:25:00.008,n,341,2.88,2.88,3.24,17.4,82.8,1023.82,0,0,0,0,0.024376
2018/06/30 00:26:00.005,n,304,2.16,2.16,2.88,17.4,82.7,1023.82,0,0,0,0,0.023499
2018/06/30 00:27:00.002,n,69,1.44,0.36,2.52,17.4,82.4,1023.82,0,0,0,0,0.031357
2018/06/30 00:28:00.000,n,13,1.44,0.72,1.8,17.3,82.3,1023.82,0,0,0,0,0.019989
2018/06/30 00:29:00.000,n,35,2.52,2.16,2.88,17.3,82.2,1023.82,0,0,0,0,0.035706
2018/06/30 00:30:00.000,n,47,2.52,2.16,2.88,17.2,82.4,1023.82,0,0,0,0,0.033073
2018/06/30 00:31:00.002,n,92,1.08,0.36,2.16,17.1,82.6,1023.82,0,0,0,0,0.030479
2018/06/30 00:32:00.000,n,116,0.72,0.36,0.72,17.1,82.7,1023.82,0,0,0,0,0.033951
2018/06/30 00:33:00.000,n,42,2.88,2.52,3.24,17.1,83,1023.82,0,0,0,0,0.037422
2018/06/30 00:34:00.009,n,51,2.16,1.08,2.88,17,83.2,1023.82,0,0,0,0,0.033073
2018/06/30 00:35:00.006,n,339,1.44,0.36,2.16,17,83.3,1023.82,0,0,0,0,0.037422
2018/06/30 00:36:00.003,n,43,1.44,1.44,1.8,17,83.5,1023.82,0,0,0,0,0.034828
2018/06/30 00:37:00.000,n,85,0.36,0,0.72,17,83.5,1023.82,0,0,0,0,0.02697
2018/06/30 00:38:00.000,n,108,1.08,0.72,1.08,16.9,83.7,1023.82,0,0,0,0,0.026131
2018/06/30 00:39:00.000,n,38,1.8,1.08,2.16,16.9,84,1023.82,0,0,0,0,0.027847
2018/06/30 00:40:00.007,n,329,1.08,0.72,1.8,16.9,84.1,1023.82,0,0,0,0,0.027847
2018/06/30 00:41:00.004,n,9,1.8,1.44,2.16,17,84.4,1023.82,0,0,0,0,0.027847
2018/06/30 00:42:00.001,n,337,2.16,1.8,2.52,17,84.4,1023.82,0,0,0,0,0.024376
2018/06/30 00:43:00.000,n,286,3.24,2.88,3.6,17,84.6,1023.92,0,0,0,0,0.033073
2018/06/30 00:44:00.010,n,296,2.16,2.16,2.52,17,84.8,1023.92,0,0,0,0,0.026131
2018/06/30 00:45:00.007,n,253,3.24,2.88,3.6,17.1,84.7,1023.92,0,0,0,0,0.027847
2018/06/30 00:46:00.000,n,297,2.88,2.52,2.88,17.1,84.8,1023.92,0,0,0,0,0.022621
2018/06/30 00:47:00.000,n,282,2.52,2.52,2.88,17.1,84.7,1023.92,0,0,0,0,0.025215
2018/06/30 00:48:00.000,n,323,1.8,0.72,2.16,17.1,84.6,1023.92,0,0,0,0,0.020866
2018/06/30 00:49:00.000,n,257,3.96,3.6,3.96,17.1,84.6,1023.92,0,0,0,0,0.022621
2018/06/30 00:50:00.009,n,240,3.24,2.52,3.6,17.1,84.5,1023.92,0,0,0,0,0.025215
2018/06/30 00:51:00.007,n,291,3.96,2.88,4.32,17.1,84.5,1023.92,0,0,0,0,0.022621
2018/06/30 00:52:00.007,n,274,3.96,3.24,4.68,17.1,84.6,1023.92,0,0,0,0,0.020866
2018/06/30 00:53:00.002,n,271,2.88,2.88,3.24,17.1,84.6,1023.92,0,0,0,0,0.02964
2018/06/30 00:54:00.012,n,307,2.52,2.16,2.88,17.1,84.6,1023.92,0,0,0,0,0.031357
2018/06/30 00:55:00.000,n,301,3.24,3.24,3.6,17.1,84.7,1023.92,0,0,0,0,0.031357
2018/06/30 00:56:00.000,n,296,2.52,2.16,3.24,17.1,84.7,1024.02,0,0,0,0,0.030479
2018/06/30 00:57:00.004,n,289,1.44,1.08,1.8,17.2,84.6,1024.02,0,0,0,0,0.02964
2018/06/30 00:58:00.002,n,300,2.88,2.52,3.6,17.2,84.5,1024.02,0,0,0,0,0.031357
2018/06/30 00:59:00.000,n,291,2.88,2.52,3.24,17.2,84.5,1024.02,0,0,0,0,0.030479
2018/06/30 01:00:00.000,n,282,2.52,2.52,2.88,17.2,84.4,1024.02,0,0,0,0,0.032234
2018/06/30 01:01:00.010,n,263,3.6,3.24,4.68,17.2,84.4,1023.92,0,0,0,0,0.036621
2018/06/30 01:02:00.007,n,258,4.68,4.32,5.04,17.2,84.5,1023.92,0,0,0,0,0.032234
2018/06/30 01:03:00.004,n,266,4.32,4.32,4.32,17.2,84.5,1023.92,0,0,0,0,0.035706
2018/06/30 01:04:00.000,n,275,3.6,3.6,3.96,17.2,84.4,1024.02,0,0,0,0,0.031357
2018/06/30 01:05:00.000,n,259,3.6,2.52,3.96,17.2,84.4,1024.02,0,0,0,0,0.035706
2018/06/30 01:06:00.000,n,260,4.68,4.32,5.04,17.2,84.4,1023.92,0,0,0,0,0.035706
2018/06/30 01:07:00.000,n,259,3.6,3.6,3.96,17.2,84.4,1023.92,0,0,0,0,0.03746
2018/06/30 01:08:00.004,n,272,2.88,2.52,3.24,17.2,84.3,1023.92,0,0,0,0,0.034828
2018/06/30 01:09:00.003,n,287,3.24,2.88,3.6,17.2,84.3,1023.92,0,0,0,0,0.033112
2018/06/30 01:10:00.001,n,270,2.16,1.8,2.52,17.2,84.3,1023.92,0,0,0,0,0.042686
2018/06/30 01:11:00.014,n,72,0.72,0.36,1.08,17.2,84.2,1023.92,0,0,0,0,0.035706
2018/06/30 01:12:00.011,n,58,1.44,1.44,1.8,17.2,83.7,1023.92,0,0,0,0,0.033989
2018/06/30 01:13:00.000,n,35,2.88,2.52,3.6,17.1,83.4,1023.92,0,0,0,0,0.04097
2018/06/30 01:14:00.000,n,34,2.52,2.16,2.88,17,83.4,1023.92,0,0,0,0,0.030479
2018/06/30 01:15:00.002,n,36,1.08,0.72,1.44,16.9,83.6,1023.92,0,0,0,0,0.03746
2018/06/30 01:16:00.000,n,337,0.36,0.36,0.72,16.9,83.9,1023.92,0,0,0,0,0.034828
2018/06/30 01:17:00.000,n,19,1.44,1.08,1.8,16.9,84.1,1023.92,0,0,0,0,0.040054
2018/06/30 01:18:00.010,n,241,0.72,0.72,0.72,16.9,84.2,1023.92,0,0,0,0,0.036621
2018/06/30 01:19:00.009,n,247,0.72,0.36,0.72,16.9,84.2,1023.92,0,0,0,0,0.036621
2018/06/30 01:20:00.006,n,290,0.72,0.72,1.08,16.9,84.3,1023.92,0,0,0,0,0.035706
2018/06/30 01:21:00.002,n,242,0.72,0.72,0.72,16.9,84.5,1023.92,0,0,0,0,0.035706
2018/06/30 01:22:00.001,n,244,1.08,0.72,1.08,16.9,84.5,1023.92,0,0,0,0,0.03746
2018/06/30 01:23:00.000,n,214,1.44,1.08,1.44,16.9,84.6,1023.92,0,0,0,0,0.036621
2018/06/30 01:24:00.000,n,178,0.72,0.36,1.08,16.9,84.6,1023.92,0,0,0,0,0.034828
2018/06/30 01:25:00.000,n,57,1.44,1.08,1.8,16.9,84.5,1023.92,0,0,0,0,0.039215
2018/06/30 01:26:00.006,n,57,1.8,1.44,1.8,16.9,84.2,1023.92,0,0,0,0,0.034828
2018/06/30 01:27:00.003,n,36,1.8,1.08,1.8,16.8,84.1,1023.92,0,0,0,0,0.036621
2018/06/30 01:28:00.001,n,65,1.44,1.08,1.8,16.8,84.2,1023.92,0,0,0,0,0.036621
2018/06/30 01:29:00.000,n,44,2.16,1.44,2.16,16.8,84.3,1023.92,0,0,0,0,0.036621
2018/06/30 01:30:00.011,n,45,1.08,0.36,1.8,16.700002,84.3,1023.92,0,0,0,0,0.04097
2018/06/30 01:31:00.000,n,152,1.08,0.72,1.08,16.700002,84.3,1023.92,0,0,0,0,0.039215
2018/06/30 01:32:00.000,n,143,3.6,3.24,3.96,16.700002,84.3,1023.92,0,0,0,0,0.039215
2018/06/30 01:33:00.004,n,149,3.96,3.96,3.96,16.6,84.7,1023.92,0,0,0,0,0.035706
2018/06/30 01:34:00.001,n,146,1.44,1.44,1.8,16.6,84.8,1023.92,0,0,0,0,0.038338
2018/06/30 01:35:00.000,n,148,3.6,3.6,3.6,16.6,84.9,1023.92,0,0,0,0,0.03746
2018/06/30 01:36:00.000,n,156,3.6,2.88,4.32,16.6,85.2,1023.92,0,0,0,0,0.040054
2018/06/30 01:37:00.010,n,163,3.6,3.6,3.96,16.6,85.3,1023.92,0,0,0,0,0.039215
2018/06/30 01:38:00.007,n,170,4.68,4.32,5.04,16.5,85.3,1023.92,0,0,0,0,0.041809
2018/06/30 01:39:00.005,n,166,2.16,1.8,2.52,16.5,85.4,1023.92,0,0,0,0,0.033989
2018/06/30 01:40:00.002,n,195,1.44,0.72,2.16,16.5,85.5,1023.92,0,0,0,0,0.039215
2018/06/30 01:41:00.000,n,157,2.88,2.16,3.24,16.5,85.7,1023.92,0,0,0,0,0.033989
2018/06/30 01:42:00.000,n,205,0.72,0,1.08,16.5,85.7,1023.92,0,0,0,0,0.042686
2018/06/30 01:43:00.000,n,207,3.6,2.88,3.6,16.6,85.8,1023.92,0,0,0,0,0.040054
2018/06/30 01:44:00.006,n,182,4.68,4.32,5.76,16.6,85.9,1023.92,0,0,0,0,0.034828
2018/06/30 01:45:00.003,n,159,2.16,1.44,2.52,16.6,85.9,1023.92,0,0,0,0,0.040054
2018/06/30 01:46:00.000,n,179,2.88,2.52,3.24,16.6,85.6,1023.92,0,0,0,0,0.041809
2018/06/30 01:47:00.014,n,213,2.88,2.16,3.6,16.6,85.5,1023.92,0,0,0,0,0.04097
2018/06/30 01:48:00.011,n,141,3.6,2.88,3.96,16.5,85.4,1023.92,0,0,0,0,0.035706
2018/06/30 01:49:00.000,n,155,1.44,1.08,1.8,16.5,85.5,1023.92,0,0,0,0,0.033112
2018/06/30 01:50:00.000,n,146,2.88,2.88,3.24,16.5,85.5,1023.92,0,0,0,0,0.034828
2018/06/30 01:51:00.002,n,109,3.6,3.24,3.96,16.4,85.5,1023.92,0,0,0,0,0.036621
2018/06/30 01:52:00.000,n,125,3.96,3.24,4.68,16.4,85.5,1023.92,0,0,0,0,0.039215
2018/06/30 01:53:00.000,n,137,2.52,2.16,2.88,16.4,85.6,1023.92,0,0,0,0,0.034828
2018/06/30 01:54:00.010,n,150,2.16,1.8,2.16,16.4,85.6,1023.82,0,0,0,0,0.034828
2018/06/30 01:55:00.008,n,139,1.8,1.44,1.8,16.3,85.6,1023.82,0,0,0,0,0.033112
2018/06/30 01:56:00.005,n,196,1.44,0.72,1.44,16.3,85.7,1023.82,0,0,0,0,0.03746
2018/06/30 01:57:00.001,n,184,2.88,2.52,3.6,16.3,85.7,1023.82,0,0,0,0,0.030479
2018/06/30 01:58:00.000,n,166,1.08,0.72,1.08,16.3,85.8,1023.82,0,0,0,0,0.030479
2018/06/30 01:59:00.000,n,190,0.36,0.36,0.36,16.200002,85.7,1023.92,0,0,0,0,0.027885
2018/06/30 02:00:00.000,n,127,2.16,1.44,2.52,16.200002,85.8,1023.92,0,0,0,0,0.030479
2018/06/30 02:01:00.006,n,103,1.44,1.08,1.44,16.200002,85.7,1023.92,0,0,0,0,0.033112
2018/06/30 02:02:00.005,n,100,2.16,1.8,2.52,16.200002,85.7,1023.82,0,0,0,0,0.033112
2018/06/30 02:03:00.001,n,214,1.8,0.36,3.24,16.200002,85.9,1023.92,0,0,0,0,0.028763
2018/06/30 02:04:00.000,n,155,4.32,3.96,4.68,16.1,85.7,1023.92,0,0,0,0,0.033989
2018/06/30 02:05:00.011,n,173,3.96,3.6,4.68,16.1,85.6,1023.92,0,0,0,0,0.032234
2018/06/30 02:06:00.009,n,143,3.24,2.88,3.6,16.1,85.7,1023.92,0,0,0,0,0.030479
2018/06/30 02:07:00.000,n,137,2.52,2.16,2.88,16,85.8,1023.92,0,0,0,0,0.027008
2018/06/30 02:08:00.002,n,143,4.32,3.96,5.04,16,85.9,1023.92,0,0,0,0,0.028763
2018/06/30 02:09:00.001,n,152,0.72,0,1.44,16,85.9,1023.92,0,0,0,0,0.031357
2018/06/30 02:10:00.000,n,131,1.8,1.08,2.16,16,85.8,1023.92,0,0,0,0,0.027008
2018/06/30 02:11:00.000,n,144,1.44,1.08,1.8,15.9,85.9,1023.92,0,0,0,0,0.027885
2018/06/30 02:12:00.008,n,109,2.88,2.16,3.24,15.9,86,1023.92,0,0,0,0,0.028763
2018/06/30 02:13:00.004,n,63,2.52,2.52,3.6,15.9,85.9,1023.82,0,0,0,0,0.026131
2018/06/30 02:14:00.001,n,108,0.36,0.36,0.72,15.9,85.9,1023.92,0,0,0,0,0.028763
2018/06/30 02:15:00.015,n,129,2.52,1.8,3.6,15.9,85.8,1023.92,0,0,0,0,0.026131
2018/06/30 02:16:00.000,n,127,5.4,5.04,6.48,15.8,85.7,1023.92,0,0,0,0,0.027008
2018/06/30 02:17:00.000,n,184,1.08,0.36,2.16,15.8,85.6,1023.92,0,0,0,0,0.027008
2018/06/30 02:18:00.000,n,143,7.92,7.56,8.64,15.7,85.5,1023.92,0,0,0,0,0.024414
2018/06/30 02:19:00.003,n,182,6.84,6.12,7.56,15.7,85.6,1023.92,0,0,0,0,0.026131
2018/06/30 02:20:00.001,n,124,3.96,1.08,5.76,15.7,85.5,1023.92,0,0,0,0,0.026131
2018/06/30 02:21:00.000,n,160,5.04,2.88,5.76,15.6,85.6,1023.92,0,0,0,0,0.027008
2018/06/30 02:22:00.011,n,68,3.24,2.88,3.24,15.6,85.8,1023.92,0,0,0,0,0.025253
2018/06/30 02:23:00.008,n,201,3.24,3.24,3.6,15.6,85.7,1023.92,0,0,0,0,0.027885
2018/06/30 02:24:00.005,n,90,0.72,0.36,1.8,15.6,85.8,1023.92,0,0,0,0,0.02964
2018/06/30 02:25:00.000,n,17,0.36,0.36,0.72,15.6,85.9,1023.92,0,0,0,0,0.019188
2018/06/30 02:26:00.000,n,119,3.96,1.44,5.4,15.6,86,1023.92,0,0,0,0,0.020905
2018/06/30 02:27:00.000,n,147,6.84,6.12,7.56,15.6,85.7,1023.92,0,0,0,0,0.036621
2018/06/30 02:28:00.007,n,104,1.44,1.08,2.52,15.6,85.7,1024.02,0,0,0,0,0.036621
2018/06/30 02:29:00.004,n,38,0.72,0.36,1.44,15.6,85.7,1023.92,0,0,0,0,0.035744
2018/06/30 02:30:00.002,n,75,1.44,0.72,1.8,15.6,85.9,1023.92,0,0,0,0,0.034866
2018/06/30 02:31:00.000,n,351,2.16,1.08,3.24,15.6,86.1,1023.92,0,0,0,0,0.035744
2018/06/30 02:32:00.013,n,71,1.44,1.08,1.44,15.6,85.9,1023.92,0,0,0,0,0.033112
2018/06/30 02:33:00.010,n,342,2.88,2.88,3.24,15.7,85.6,1023.92,0,0,0,0,0.033112
2018/06/30 02:34:00.000,n,65,1.8,1.08,2.88,15.6,85.9,1023.92,0,0,0,0,0.032272
2018/06/30 02:35:00.000,n,93,1.44,0.72,2.88,15.6,85.7,1023.92,0,0,0,0,0.033989
2018/06/30 02:36:00.002,n,101,1.8,1.08,2.16,15.7,85.7,1023.92,0,0,0,0,0.033112
2018/06/30 02:37:00.000,n,188,1.8,1.08,2.16,15.7,85.3,1023.92,0,0,0,0,0.032272
2018/06/30 02:38:00.000,n,126,2.52,2.16,2.52,15.6,85.1,1023.92,0,0,0,0,0.02964
2018/06/30 02:39:00.009,n,155,1.44,0.72,2.16,15.6,85.2,1023.82,0,0,0,0,0.030479
2018/06/30 02:40:00.006,n,134,3.6,3.24,4.32,15.5,85,1023.82,0,0,0,0,0.031395
2018/06/30 02:41:00.004,n,120,2.16,1.8,2.16,15.5,85,1023.82,0,0,0,0,0.030479
2018/06/30 02:42:00.001,n,154,5.04,4.32,5.76,15.5,85,1023.82,0,0,0,0,0.030479
2018/06/30 02:43:00.000,n,153,5.4,4.68,6.12,15.4,85.1,1023.92,0,0,0,0,0.032272
2018/06/30 02:44:00.000,n,152,2.88,2.52,3.24,15.4,85.2,1023.92,0,0,0,0,0.030479
2018/06/30 02:45:00.000,n,137,2.16,1.44,3.24,15.4,85.3,1023.92,0,0,0,0,0.031395
2018/06/30 02:46:00.007,n,174,1.44,1.08,1.44,15.4,85.4,1023.92,0,0,0,0,0.03746
2018/06/30 02:47:00.006,n,153,1.08,0.72,1.8,15.4,85.4,1023.92,0,0,0,0,0.031395
2018/06/30 02:48:00.003,n,119,2.16,2.16,2.52,15.4,85.5,1023.92,0,0,0,0,0.031395
2018/06/30 02:49:00.001,n,148,2.52,2.16,2.88,15.4,85.4,1023.92,0,0,0,0,0.030479
2018/06/30 02:50:00.000,n,132,5.04,4.68,5.4,15.4,85.5,1023.92,0,0,0,0,0.028763
2018/06/30 02:51:00.011,n,115,2.88,2.52,3.24,15.4,85.5,1023.82,0,0,0,0,0.030479
2018/06/30 02:52:00.000,n,139,2.52,1.8,3.24,15.4,85.5,1023.82,0,0,0,0,0.032272
2018/06/30 02:53:00.000,n,146,3.24,2.88,3.6,15.4,85.5,1023.82,0,0,0,0,0.033112
2018/06/30 02:54:00.002,n,181,4.68,3.96,5.04,15.4,85.5,1023.82,0,0,0,0,0.033989
2018/06/30 02:55:00.000,n,172,3.24,2.88,3.6,15.3,85.5,1023.82,0,0,0,0,0.033112
2018/06/30 02:56:00.000,n,136,4.32,3.96,4.68,15.3,85.5,1023.82,0,0,0,0,0.032272
2018/06/30 02:57:00.009,n,146,5.4,4.68,6.12,15.3,85.5,1023.82,0,0,0,0,0.031395
2018/06/30 02:58:00.006,n,177,3.96,3.6,4.32,15.3,85.5,1023.82,0,0,0,0,0.027885
2018/06/30 02:59:00.004,n,163,6.84,6.48,7.56,15.3,85.5,1023.72,0,0,0,0,0.026131
2018/06/30 03:00:00.002,n,156,2.16,1.8,2.52,15.3,85.6,1023.82,0,0,0,0,0.027046
2018/06/30 03:01:00.000,n,142,5.04,4.32,5.76,15.3,85.7,1023.82,0,0,0,0,0.026131
2018/06/30 03:02:00.000,n,104,3.6,2.88,4.32,15.3,85.8,1023.82,0,0,0,0,0.031395
2018/06/30 03:03:00.000,n,161,0.72,0.36,1.08,15.3,86,1023.82,0,0,0,0,0.026131
2018/06/30 03:04:00.007,n,120,2.52,1.8,2.88,15.3,85.9,1023.72,0,0,0,0,0.027885
2018/06/30 03:05:00.004,n,130,1.8,1.44,2.52,15.3,85.8,1023.72,0,0,0,0,0.026131
2018/06/30 03:06:00.001,n,158,3.96,3.96,4.32,15.3,85.7,1023.72,0,0,0,0,0.025291
2018/06/30 03:07:00.000,n,133,3.96,3.6,3.96,15.3,85.8,1023.72,0,0,0,0,0.024414
2018/06/30 03:08:00.011,n,170,2.88,2.52,3.24,15.3,85.6,1023.72,0,0,0,0,0.027885
2018/06/30 03:09:00.008,n,144,5.04,4.68,5.4,15.2,85.6,1023.72,0,0,0,0,0.031395
2018/06/30 03:10:00.000,n,133,5.4,4.68,5.76,15.2,85.7,1023.72,0,0,0,0,0.030479
2018/06/30 03:11:00.002,n,115,1.44,0.36,2.52,15.2,85.8,1023.72,0,0,0,0,0.02964
2018/06/30 03:12:00.000,n,112,1.44,0.72,1.8,15.2,85.8,1023.72,0,0,0,0,0.024414
2018/06/30 03:13:00.000,n,278,3.6,3.24,5.04,15.2,85.8,1023.72,0,0,0,0,0.025291
2018/06/30 03:14:00.000,n,353,0.72,0.36,1.08,15.2,85.8,1023.72,0,0,0,0,0.027046
2018/06/30 03:15:00.007,n,118,3.6,3.24,3.6,15.3,85.8,1023.72,0,0,0,0,0.023537
2018/06/30 03:16:00.004,n,76,2.52,2.16,3.24,15.3,86,1023.72,0,0,0,0,0.026131
2018/06/30 03:17:00.001,n,109,1.08,0.72,1.44,15.3,85.9,1023.72,0,0,0,0,0.035744
2018/06/30 03:18:00.016,n,57,0.72,0.36,1.08,15.3,85.8,1023.72,0,0,0,0,0.024414
2018/06/30 03:19:00.000,n,61,2.16,1.8,2.52,15.3,86,1023.72,0,0,0,0,0.024414
2018/06/30 03:20:00.000,n,300,0.72,0.72,1.08,15.3,86,1023.82,0,0,0,0,0.026131
2018/06/30 03:21:00.000,n,237,0.72,0.36,1.08,15.3,86.2,1023.82,0,0,0,0,0.027885
2018/06/30 03:22:00.005,n,170,1.44,0.72,2.16,15.4,85.9,1023.82,0,0,0,0,0.025291
2018/06/30 03:23:00.003,n,163,2.16,2.16,2.52,15.4,85.6,1023.72,0,0,0,0,0.026131
2018/06/30 03:24:00.000,n,145,1.08,1.08,1.44,15.3,85.5,1023.82,0,0,0,0,0.026131
2018/06/30 03:25:00.000,n,133,1.08,0.72,1.44,15.3,85.4,1023.82,0,0,0,0,0.024414
2018/06/30 03:26:00.010,n,126,1.44,1.44,1.8,15.2,85.4,1023.82,0,0,0,0,0.025291
2018/06/30 03:27:00.008,n,114,1.08,0.72,1.8,15.2,85.4,1023.82,0,0,0,0,0.024414
2018/06/30 03:28:00.000,n,287,3.6,3.24,3.96,15.2,85.6,1023.72,0,0,0,0,0.025291
2018/06/30 03:29:00.001,n,323,1.44,0.72,1.8,15.2,85.7,1023.72,0,0,0,0,0.025291
2018/06/30 03:30:00.000,n,174,1.44,1.08,2.16,15.2,85.7,1023.72,0,0,0,0,0.021782
2018/06/30 03:31:00.000,n,198,0.72,0.36,2.16,15.2,85.8,1023.72,0,0,0,0,0.022697
2018/06/30 03:32:00.008,n,111,0.72,0,1.44,15.2,85.6,1023.72,0,0,0,0,0.021782
2018/06/30 03:33:00.005,n,144,2.16,1.8,2.88,15.2,85.6,1023.82,0,0,0,0,0.020065
2018/06/30 03:34:00.002,n,150,4.32,4.32,4.32,15.2,85.4,1023.82,0,0,0,0,0.027885
2018/06/30 03:35:00.000,n,109,2.16,2.16,2.16,15.2,85.4,1023.82,0,0,0,0,0.029602
2018/06/30 03:36:00.011,n,134,2.16,2.16,2.52,15.1,85.4,1023.82,0,0,0,0,0.035706
2018/06/30 03:37:00.000,n,161,2.88,1.08,3.24,15.1,85.4,1023.82,0,0,0,0,0.032196
2018/06/30 03:38:00.000,n,167,4.68,3.96,5.04,15.1,85.4,1023.82,0,0,0,0,0.036545
2018/06/30 03:39:00.002,n,172,2.88,2.52,3.96,15.1,85.4,1023.92,0,0,0,0,0.032196
2018/06/30 03:40:00.000,n,141,2.52,0.72,5.04,15,85.5,1023.92,0,0,0,0,0.034828
2018/06/30 03:41:00.000,n,152,3.96,3.96,4.68,15,85.5,1023.92,0,0,0,0,0.031357
2018/06/30 03:42:00.009,n,142,5.4,4.68,6.12,15,85.5,1023.82,0,0,0,0,0.029602
2018/06/30 03:43:00.008,n,155,3.24,1.44,5.04,15,85.5,1023.82,0,0,0,0,0.029602
2018/06/30 03:44:00.004,n,143,2.52,1.8,3.24,14.9,85.6,1023.82,0,0,0,0,0.030479
2018/06/30 03:45:00.001,n,134,4.32,3.96,5.04,14.9,85.6,1023.82,0,0,0,0,0.029602
2018/06/30 03:46:00.000,n,155,5.76,5.4,6.48,14.9,85.6,1023.82,0,0,0,0,0.029602
2018/06/30 03:47:00.000,n,210,2.88,0.36,4.68,14.9,85.7,1023.82,0,0,0,0,0.026131
2018/06/30 03:48:00.000,n,156,4.68,3.96,5.76,14.9,85.7,1023.82,0,0,0,0,0.027847
2018/06/30 03:49:00.006,n,229,0.36,0,1.08,14.8,85.7,1023.82,0,0,0,0,0.026131
2018/06/30 03:50:00.003,n,173,4.32,3.24,5.04,14.8,85.9,1023.82,0,0,0,0,0.028725
2018/06/30 03:51:00.000,n,168,3.6,2.52,3.96,14.8,85.9,1023.82,0,0,0,0,0.02697
2018/06/30 03:52:00.000,n,138,2.88,2.16,4.32,14.8,85.9,1023.82,0,0,0,0,0.025253
2018/06/30 03:53:00.010,n,110,2.88,1.08,3.96,14.8,86,1023.82,0,0,0,0,0.023499
2018/06/30 03:54:00.007,n,148,5.76,5.4,6.12,14.8,86,1023.82,0,0,0,0,0.02697
2018/06/30 03:55:00.000,n,130,4.68,4.32,5.04,14.8,86.1,1023.82,0,0,0,0,0.025253
2018/06/30 03:56:00.000,n,157,8.28,6.84,9,14.8,86,1023.82,0,0,0,0,0.020027
2018/06/30 03:57:00.000,n,162,5.76,4.68,5.76,14.8,86.1,1023.82,0,0,0,0,0.020027
2018/06/30 03:58:00.000,n,143,2.88,2.52,3.24,14.7,86,1023.82,0,0,0,0,0.028725
2018/06/30 03:59:00.006,n,156,3.96,2.16,5.04,14.7,86.1,1023.82,0,0,0,0,0.030479
2018/06/30 04:00:00.004,n,166,5.76,5.04,6.12,14.7,86.1,1023.82,0,0,0,0,0.031319
2018/06/30 04:01:00.001,n,148,7.56,6.84,8.64,14.7,86.1,1023.82,0,0,0,0,0.027847
2018/06/30 04:02:00.000,n,146,5.76,5.04,6.12,14.7,86.2,1023.72,0,0,0,0,0.028725
2018/06/30 04:03:00.012,n,164,0.36,0,0.36,14.6,86.2,1023.82,0,0,0,0,0.032196
2018/06/30 04:04:00.000,n,131,3.96,3.24,4.68,14.6,86.2,1023.82,0,0,0,0,0.032196
2018/06/30 04:05:00.000,n,156,2.16,1.8,2.52,14.6,86.2,1023.82,0,0,0,0,0.027847
2018/06/30 04:06:00.003,n,132,4.68,3.96,5.04,14.6,86.3,1023.82,0,0,0,0,0.02697
2018/06/30 04:07:00.000,n,114,1.8,1.08,2.88,14.6,86.4,1023.82,0,0,0,0,0.033951
2018/06/30 04:08:00.000,n,179,1.44,1.44,1.8,14.6,86.3,1023.82,0,0,0,0,0.024376
2018/06/30 04:09:00.010,n,117,2.88,2.52,2.88,14.6,86.4,1023.82,0,0,0,0,0.028725
2018/06/30 04:10:00.009,n,60,1.08,0.72,1.44,14.6,86.7,1023.82,0,0,0,0,0.026131
2018/06/30 04:11:00.006,n,116,1.08,0.72,1.44,14.6,86.7,1023.82,0,0,0,0,0.025253
2018/06/30 04:12:00.003,n,73,0.72,0.36,1.44,14.6,86.6,1023.82,0,0,0,0,0.022621
2018/06/30 04:13:00.000,n,146,2.52,2.52,2.88,14.6,86.4,1023.82,0,0,0,0,0.029602
2018/06/30 04:14:00.000,n,173,1.08,1.08,1.44,14.6,86.4,1023.82,0,0,0,0,0.020905
2018/06/30 04:15:00.000,n,214,2.16,1.8,2.88,14.5,86.4,1023.82,0,0,0,0,0.033989
2018/06/30 04:16:00.000,n,180,3.24,2.88,3.6,14.5,86.4,1023.82,0,0,0,0,0.033989
2018/06/30 04:17:00.005,n,190,0.72,0.36,1.44,14.5,86.4,1023.82,0,0,0,0,0.033112
2018/06/30 04:18:00.003,n,144,0.36,0.36,0.72,14.5,86.4,1023.82,0,0,0,0,0.03746
2018/06/30 04:19:00.000,n,264,1.8,1.44,2.16,14.5,86.5,1023.82,0,0,0,0,0.031357
2018/06/30 04:20:00.012,n,319,1.44,0.72,1.44,14.5,86.5,1023.82,0,0,0,0,0.039177
2018/06/30 04:21:00.009,n,142,0.36,0.36,0.72,14.4,86.5,1023.82,0,0,0,0,0.036545
2018/06/30 04:22:00.000,n,140,2.88,2.88,2.88,14.4,86.5,1023.82,0,0,0,0,0.027008
2018/06/30 04:23:00.003,n,136,1.8,1.44,2.16,14.4,86.5,1023.82,0,0,0,0,0.027008
2018/06/30 04:24:00.000,n,135,3.24,2.88,3.96,14.4,86.5,1023.82,0,0,0,0,0.023499
2018/06/30 04:25:00.000,n,133,2.16,1.8,2.52,14.4,86.6,1023.82,0,0,0,0,0.026131
2018/06/30 04:26:00.000,n,134,1.8,1.08,2.16,14.4,86.5,1023.82,0,0,0,0,0.025253
2018/06/30 04:27:00.007,n,147,2.52,2.52,2.88,14.4,86.6,1023.82,0,0,0,0,0.026131
2018/06/30 04:28:00.004,n,154,2.16,1.8,2.16,14.4,86.6,1023.82,0,0,0,0,0.032196
2018/06/30 04:29:00.001,n,134,3.6,3.24,3.96,14.3,86.6,1023.82,0,0,0,0,0.022621
2018/06/30 04:30:00.015,n,137,2.16,2.16,2.52,14.3,86.7,1023.82,0,0,0,0,0.023499
2018/06/30 04:31:00.000,n,140,2.88,2.52,3.24,14.3,86.6,1023.82,0,0,0,0,0.023499
2018/06/30 04:32:00.000,n,150,4.32,4.32,4.68,14.3,86.7,1023.82,0,0,0,0,0.025253
2018/06/30 04:33:00.000,n,161,4.68,4.32,5.4,14.3,86.7,1023.82,0,0,0,0,0.01915
2018/06/30 04:34:00.002,n,158,4.32,3.96,5.04,14.3,86.7,1023.82,0,0,0,0,0.031395
2018/06/30 04:35:00.000,n,172,5.4,5.04,5.76,14.3,86.7,1023.82,0,0,0,0,0.033112
2018/06/30 04:36:00.009,n,147,3.24,3.24,3.96,14.3,86.7,1023.82,0,0,0,0,0.038338
2018/06/30 04:37:00.006,n,75,1.44,0.72,2.16,14.3,86.6,1023.82,0,0,0,0,0.032234
2018/06/30 04:38:00.003,n,118,2.16,1.8,2.88,14.2,86.6,1023.82,0,0,0,0,0.038338
2018/06/30 04:39:00.000,n,113,2.16,1.8,2.88,14.2,86.7,1023.82,0,0,0,0,0.033112
2018/06/30 04:40:00.000,n,116,1.44,0.72,1.8,14.2,86.7,1023.82,0,0,0,0,0.032234
2018/06/30 04:41:00.000,n,118,2.52,2.52,3.24,14.2,86.8,1023.82,0,0,0,0,0.031395
2018/06/30 04:42:00.000,n,90,1.44,1.08,2.16,14.2,87,1023.82,0,0,0,0,0.028763
2018/06/30 04:43:00.005,n,55,1.44,0.72,2.16,14.2,86.9,1023.72,0,0,0,0,0.028763
2018/06/30 04:44:00.003,n,59,1.44,1.08,1.8,14.2,86.8,1023.72,0,0,0,0,0.028763
2018/06/30 04:45:00.000,n,53,1.44,0.72,2.88,14.2,87,1023.72,0,0,0,0,0.027885
2018/06/30 04:46:00.000,n,30,2.52,1.8,3.24,14.2,87.2,1023.62,0,0,0,0,0.033951
2018/06/30 04:47:00.010,n,42,3.96,2.16,4.32,14.3,87.1,1023.62,0,0,0,0,0.028763
2018/06/30 04:48:00.008,n,43,3.24,2.88,3.96,14.3,87.1,1023.62,0,0,0,0,0.027885
2018/06/30 04:49:00.000,n,21,1.8,0.72,2.52,14.3,87,1023.62,0,0,0,0,0.024414
2018/06/30 04:50:00.003,n,214,0.72,0.36,1.08,14.3,86.9,1023.62,0,0,0,0,0.028763
2018/06/30 04:51:00.000,n,76,1.08,0,1.8,14.3,87,1023.62,0,0,0,0,0.026131
2018/06/30 04:52:00.000,n,38,1.8,1.8,2.52,14.3,86.9,1023.62,0,0,0,0,0.022621
2018/06/30 04:53:00.000,n,117,1.8,1.44,1.8,14.3,86.7,1023.62,0,0,0,0,0.025253
2018/06/30 04:54:00.008,n,132,1.08,1.08,1.44,14.3,86.6,1023.62,0,0,0,0,0.025253
2018/06/30 04:55:00.005,n,132,1.08,1.08,1.44,14.3,86.5,1023.72,0,0,0,0,0.028763